FW8253 Weather Reports


time (UTC)temp
C
wind
direction
speed
KPH
gust
KPH
rain 1hr
cm
rain 24hr
cm
rain mn
cm
humidity
%
barometer
mb
20260502163328 15 215 0.0 0.0 0.00 0.05 0.05 99 1013.9
20260502162826 15 247 0.0 0.0 0.00 0.05 0.05 99 1014.3
20260502162322 15 234 0.0 0.0 0.00 0.05 0.05 99 1013.9
20260502161819 15 230 0.0 0.0 0.00 0.05 0.05 99 1014.1
20260502161315 15 225 0.0 0.0 0.00 0.05 0.05 99 1014.1
20260502160813 15 204 0.0 0.0 0.00 0.05 0.05 99 1013.8
20260502160312 15 233 0.0 0.0 0.00 0.05 0.05 99 1014.1
20260502152247 15 235 0.0 0.0 0.00 0.05 0.05 99 1014.0
20260502151744 15 215 0.0 0.0 0.00 0.05 0.05 99 1014.1
20260502151241 15 226 0.0 0.0 0.00 0.05 0.05 99 1014.2
20260502150739 15 255 0.0 0.0 0.00 0.05 0.05 99 1014.0
20260502150236 14 232 0.0 0.0 0.00 0.05 0.05 99 1013.8
20260502130624 14 223 0.0 0.0 0.00 0.05 0.05 99 1013.3
20260502130122 15 207 0.0 0.0 0.00 0.05 0.05 99 1013.2
20260502123607 14 207 0.0 0.0 0.00 0.05 0.05 99 1013.5
20260502123103 14 219 0.0 0.0 0.00 0.05 0.05 99 1013.5
20260502122600 14 215 0.0 0.0 0.00 0.05 0.05 99 1013.8
20260502122057 14 260 0.0 0.0 0.00 0.05 0.05 99 1014.0
20260502121555 14 239 0.0 0.0 0.00 0.05 0.05 99 1014.0
20260502121052 14 224 0.0 0.0 0.00 0.05 0.05 99 1014.2
20260502120548 14 231 0.0 0.0 0.00 0.05 0.05 99 1014.0
20260502115544 14 242 0.0 0.0 0.00 0.05 0.05 99 1013.8
20260502115039 14 227 0.0 0.0 0.00 0.05 0.05 99 1013.5
20260502114536 14 227 0.0 0.0 0.00 0.05 0.05 99 1013.0
20260502114033 14 227 0.0 0.0 0.00 0.05 0.05 99 1012.7
20260502113531 14 226 0.0 0.0 0.00 0.05 0.05 99 1012.8
20260502113029 14 226 0.0 0.0 0.00 0.05 0.05 99 1012.7
20260502112526 14 226 0.0 0.0 0.00 0.05 0.05 99 1012.7
20260502112024 14 228 0.0 0.0 0.00 0.05 0.05 99 1012.8
20260502111521 14 228 0.0 0.0 0.00 0.05 0.05 99 1012.7
20260502111018 14 228 0.0 0.0 0.00 0.05 0.05 99 1012.7
20260502110515 14 214 0.0 0.0 0.00 0.05 0.05 99 1012.9
20260502110013 14 214 0.0 0.0 0.00 0.05 0.05 99 1012.8
20260502105510 14 217 0.0 0.0 0.00 0.05 0.05 99 1012.8
20260502105008 14 217 0.0 0.0 0.00 0.05 0.05 99 1012.6
20260502104505 14 217 0.0 0.0 0.00 0.05 0.05 99 1012.4
20260502104002 14 211 0.0 0.0 0.00 0.05 0.05 99 1012.5
20260502103459 14 212 0.0 0.0 0.00 0.05 0.05 99 1012.5
20260502102956 14 212 0.0 0.0 0.00 0.05 0.05 99 1012.5
20260502102454 15 211 0.0 0.0 0.00 0.05 0.05 99 1012.3
20260502101950 15 212 0.0 0.0 0.00 0.05 0.05 99 1012.5
20260502101449 15 212 0.0 0.0 0.00 0.05 0.05 99 1012.5
20260502100947 14 212 0.0 0.0 0.00 0.05 0.05 99 1012.5
20260502100445 14 212 0.0 0.0 0.00 0.05 0.05 99 1012.7
20260502091420 15 212 0.0 0.0 0.00 0.05 0.05 99 1012.9
20260502090916 15 211 0.0 0.0 0.00 0.05 0.05 99 1013.0
20260502090414 15 234 0.0 0.0 0.00 0.05 0.05 99 1013.1
20260502071308 16 215 0.0 0.0 0.00 0.03 0.03 99 1013.1
20260502070807 16 216 0.0 0.0 0.00 0.03 0.03 99 1013.2
20260502070304 16 216 0.0 0.0 0.00 0.03 0.03 99 1013.3
20260502065803 16 216 0.0 0.0 0.00 0.03 0.03 99 1013.2
20260502065300 16 217 0.0 0.0 0.00 0.03 0.03 99 1013.3
20260502064758 15 217 0.0 0.0 0.00 0.03 0.03 99 1013.3
20260502064256 16 216 0.0 0.0 0.00 0.03 0.03 99 1013.7
20260502063753 16 216 0.0 0.0 0.00 0.03 0.03 99 1013.4
20260502063251 16 216 0.0 0.0 0.00 0.03 0.03 99 1013.6
20260502062748 16 216 0.0 0.0 0.00 0.03 0.03 99 1013.6
20260502062245 16 216 0.0 0.0 0.00 0.03 0.03 99 1013.8
20260502061744 16 216 0.0 0.0 0.00 0.03 0.03 99 1013.9
20260502061241 16 216 0.0 0.0 0.00 0.03 0.03 99 1013.9
20260502060736 16 217 0.0 0.0 0.00 0.03 0.03 99 1013.7
20260502060232 16 217 0.0 0.0 0.00 0.03 0.03 99 1013.9
20260502055731 16 217 0.0 0.0 0.00 0.03 0.03 99 1013.9
20260502055228 16 217 0.0 0.0 0.00 0.03 0.03 99 1013.7
20260502054727 16 217 0.0 0.0 0.00 0.03 0.03 99 1013.5
20260502054224 16 217 0.0 0.0 0.00 0.03 0.03 99 1013.6
20260502053721 16 217 0.0 0.0 0.00 0.03 0.03 99 1013.8
20260502053218 16 217 0.0 0.0 0.00 0.03 0.03 99 1013.8
20260502052716 16 217 0.0 0.0 0.00 0.03 0.03 99 1013.9
20260502052214 16 216 0.0 0.0 0.00 0.03 0.03 99 1014.1
20260502051712 16 216 0.0 0.0 0.00 0.03 0.03 99 1014.4
20260502051210 16 216 0.0 0.0 0.00 0.03 0.03 99 1014.2
20260502050706 16 216 0.0 0.0 0.00 0.03 0.03 99 1014.4
20260502050202 16 216 0.0 0.0 0.13 0.03 0.03 99 1014.3
20260502045659 16 216 0.0 0.0 0.13 0.03 0.03 99 1014.6
20260502045156 16 216 0.0 0.0 0.00 0.00 0.00 99 1014.4
20260502044653 16 216 0.0 0.0 0.00 0.00 0.00 99 1014.4
20260502044149 16 216 0.0 0.0 0.00 0.00 0.00 99 1014.4
20260502043647 16 216 0.0 0.0 0.00 0.00 0.00 99 1014.3
20260502043144 16 216 0.0 0.0 0.00 0.00 0.00 99 1014.1
20260502042644 16 216 0.0 0.0 0.00 0.00 0.00 99 1014.1
20260502042141 16 216 0.0 0.0 0.00 0.00 0.00 99 1014.1
20260502041639 16 216 0.0 0.0 0.00 0.00 0.00 99 1014.0
20260502041135 16 216 0.0 0.0 0.00 0.00 0.00 99 1014.0
20260502040632 16 216 0.0 0.0 0.00 0.00 0.00 99 1014.0
20260502040130 16 216 0.0 0.0 0.00 0.00 0.00 99 1014.1
20260502035625 16 216 0.0 0.0 0.00 0.00 0.00 99 1013.9
20260502035123 16 216 0.0 0.0 0.00 0.00 0.00 98 1013.9
20260502034621 16 216 0.0 0.0 0.00 0.00 0.00 98 1013.9
20260502034119 16 216 0.0 0.0 0.00 0.00 0.00 98 1013.8
20260502033616 16 216 0.0 0.0 0.00 0.00 0.00 98 1013.9
20260502033114 16 216 0.0 0.0 0.00 0.00 0.00 98 1013.7
20260502032609 16 216 0.0 0.0 0.00 0.00 0.00 98 1013.9
20260502032106 16 216 0.0 0.0 0.00 0.00 0.00 98 1014.1
20260502031604 16 216 0.0 0.0 0.00 0.00 0.00 98 1014.1
20260502031101 16 216 0.0 0.0 0.00 0.00 0.00 98 1014.0
20260502030600 16 216 0.0 0.0 0.00 0.00 0.00 98 1013.9
20260502030057 16 216 0.0 0.0 0.00 0.00 0.00 98 1014.2
20260502025555 16 216 0.0 0.0 0.00 0.00 0.00 97 1014.0
20260502025053 16 216 0.0 0.0 0.00 0.00 0.00 97 1014.0
20260502024550 16 216 0.0 0.0 0.00 0.00 0.00 97 1014.0
20260502024048 16 216 0.0 0.0 0.00 0.00 0.00 97 1014.3
20260502023545 16 216 0.0 0.0 0.00 0.00 0.00 97 1014.0
20260502023043 16 216 0.0 0.0 0.00 0.00 0.00 96 1014.0
20260502022539 16 216 0.0 0.0 0.00 0.00 0.00 96 1014.0
20260502022037 17 216 0.0 0.0 0.00 0.00 0.00 96 1014.0
20260502021534 17 216 0.0 0.0 0.00 0.00 0.00 96 1014.0
20260502021031 17 216 0.0 0.0 0.00 0.00 0.00 96 1014.2
20260502020528 17 216 0.0 0.0 0.00 0.00 0.00 96 1014.0
20260502020025 17 216 0.0 0.0 0.00 0.00 0.00 96 1014.0
20260502015523 17 216 0.0 0.0 0.00 0.00 0.00 95 1014.1
20260502015019 17 216 0.0 0.0 0.00 0.00 0.00 95 1013.9
20260502014516 17 216 0.0 0.0 0.00 0.00 0.00 95 1014.0
20260502014013 17 216 0.0 0.0 0.00 0.00 0.00 94 1014.0
20260502013509 17 216 0.0 0.0 0.00 0.00 0.00 94 1013.9
20260502013005 17 216 0.0 0.0 0.00 0.00 0.00 94 1013.9
20260502012503 17 216 0.0 0.0 0.00 0.00 0.00 94 1013.8
20260502012001 17 216 0.0 0.0 0.00 0.00 0.00 93 1014.0
20260502011456 17 216 0.0 0.0 0.00 0.00 0.00 93 1013.9
20260502010953 17 216 0.0 0.0 0.00 0.00 0.00 93 1014.0
20260502010450 17 216 0.0 0.0 0.00 0.00 0.00 92 1013.9
20260502005946 17 216 0.0 0.0 0.00 0.00 0.00 92 1013.9
20260502005444 17 216 0.0 0.0 0.00 0.00 0.00 92 1013.5
20260502004942 17 216 0.0 0.0 0.00 0.00 0.00 92 1013.8
20260502004438 18 216 0.0 0.0 0.00 0.00 0.00 92 1013.6
20260502003935 18 216 0.0 0.0 0.00 0.00 0.00 91 1013.9
20260502003432 18 210 0.0 0.0 0.00 0.00 0.00 91 1013.8
20260502002928 18 210 0.0 0.0 0.00 0.00 0.00 90 1013.6
20260502002426 18 210 0.0 0.0 0.00 0.00 0.00 90 1013.6
20260502001923 18 210 0.0 0.0 0.00 0.00 0.00 90 1013.4
20260502001421 18 209 0.0 0.0 0.00 0.00 0.00 90 1013.3
20260502000918 18 220 0.0 0.0 0.00 0.00 0.00 89 1013.2
20260502000417 18 219 0.0 0.0 0.00 0.00 0.00 88 1013.0
20260501235912 18 218 0.0 0.0 0.00 0.00 0.00 88 1012.8
20260501235408 18 231 0.0 0.0 0.00 0.00 0.00 88 1013.0
20260501234903 18 230 0.0 0.0 0.00 0.00 0.00 87 1012.8
20260501234400 18 230 0.0 0.0 0.00 0.00 0.00 87 1012.8
20260501233859 20 170 0.0 0.0 0.00 0.00 0.00 87 1012.7
20260501233356 20 170 0.0 0.0 0.00 0.00 0.00 84 1012.5
20260501232851 20 165 0.0 0.0 0.00 0.00 0.00 83 1012.2
20260501232349 20 165 0.0 0.0 0.00 0.00 0.00 82 1012.4
20260501231846 20 165 0.0 0.0 0.00 0.00 0.00 82 1012.3
20260501231344 20 165 0.0 0.0 0.00 0.00 0.00 82 1012.6
20260501230842 20 165 0.0 0.0 0.00 0.00 0.00 79 1012.4
20260501230341 20 165 0.0 0.0 0.00 0.00 0.00 78 1012.4
20260501225838 20 165 0.0 0.0 0.00 0.00 0.00 78 1012.4
20260501225336 20 197 0.0 0.0 0.00 0.00 0.00 78 1012.8
20260501224832 20 197 0.0 0.0 0.00 0.00 0.00 78 1012.9
20260501224329 20 197 0.0 0.0 0.00 0.00 0.00 78 1012.8
20260501223825 20 201 0.0 0.0 0.00 0.00 0.00 81 1013.0
20260501223321 20 201 0.0 0.0 0.00 0.00 0.00 78 1012.9
20260501222817 21 182 0.0 0.0 0.00 0.00 0.00 79 1012.9
20260501222315 21 241 0.0 0.0 0.00 0.00 0.00 76 1012.9
20260501221812 21 201 0.0 0.0 0.00 0.00 0.00 75 1013.0
20260501221308 21 200 0.0 0.0 0.00 0.00 0.00 76 1012.8
20260501220807 21 215 0.0 0.0 0.00 0.00 0.00 77 1013.2
20260501220304 21 248 0.0 0.0 0.00 0.00 0.00 76 1013.3
20260501215800 20 245 0.0 0.0 0.00 0.00 0.00 75 1013.2
20260501215256 21 204 0.0 0.0 0.00 0.00 0.00 76 1013.5
20260501214751 21 209 0.0 0.0 0.00 0.00 0.00 74 1013.2
20260501214247 21 267 0.0 0.0 0.00 0.00 0.00 74 1013.4
20260501213743 21 217 0.0 0.0 0.00 0.00 0.00 78 1013.5
20260501213240 20 220 0.0 0.0 0.00 0.00 0.00 80 1013.5
20260501212736 20 224 0.0 0.0 0.00 0.00 0.00 79 1013.4
20260501212233 21 246 0.0 0.0 0.00 0.00 0.00 78 1013.4
20260501211730 21 227 0.0 0.0 0.00 0.00 0.00 76 1013.2
20260501211227 21 246 0.0 0.0 0.00 0.00 0.00 77 1013.4
20260501210724 21 223 0.0 0.0 0.00 0.00 0.00 78 1013.3
20260501210221 21 213 0.0 0.0 0.00 0.00 0.00 73 1013.4
20260501205717 21 49 0.0 0.0 0.00 0.00 0.00 74 1013.2
20260501205214 21 281 0.0 0.0 0.00 0.00 0.00 73 1013.1
20260501204711 21 257 0.0 0.0 0.00 0.00 0.00 74 1013.0
20260501204208 21 248 0.0 0.0 0.00 0.00 0.00 74 1013.1
20260501203704 21 112 0.0 0.0 0.00 0.00 0.00 71 1013.1
20260501203202 21 44 0.0 0.0 0.00 0.00 0.00 71 1013.1
20260501202658 21 301 0.0 0.0 0.00 0.00 0.00 73 1013.2
20260501202155 21 245 0.0 0.0 0.00 0.00 0.00 74 1013.4
20260501201652 21 309 0.0 0.0 0.00 0.00 0.00 71 1013.1
20260501201148 21 108 0.0 0.0 0.00 0.00 0.00 72 1013.3
20260501200646 20 127 0.0 0.0 0.00 0.00 0.00 73 1013.3
20260501200143 21 314 0.0 0.0 0.00 0.00 0.00 72 1013.3
20260501195641 20 239 0.0 0.0 0.00 0.00 0.00 72 1013.5
20260501195136 20 88 0.0 0.0 0.00 0.00 0.00 72 1013.4
20260501194632 20 320 0.0 0.0 0.00 0.00 0.00 73 1013.8
20260501194127 20 110 0.0 0.0 0.00 0.00 0.00 71 1014.3
20260501193625 20 247 0.0 0.0 0.00 0.00 0.00 71 1014.3
20260501193123 20 249 0.0 0.0 0.00 0.00 0.00 72 1014.3
20260501192620 20 261 0.0 0.0 0.00 0.00 0.00 72 1014.4
20260501192117 20 187 0.0 0.0 0.00 0.00 0.00 74 1014.4
20260501191615 20 254 0.0 0.0 0.00 0.00 0.00 75 1015.0
20260501191111 20 250 0.0 0.0 0.00 0.00 0.00 73 1014.6
20260501190608 20 243 0.0 0.0 0.00 0.00 0.00 72 1014.7
20260501185559 20 25 0.0 0.0 0.00 0.00 0.00 72 1014.6
20260501185055 20 25 0.0 0.0 0.00 0.00 0.00 72 1014.9
20260501184551 20 253 0.0 0.0 0.00 0.00 0.00 71 1014.4
20260501184046 19 314 0.0 0.0 0.00 0.00 0.00 73 1014.7
20260501183543 19 207 0.0 0.0 0.00 0.00 0.00 73 1014.5
20260501183039 18 238 0.0 0.0 0.00 0.00 0.00 72 1014.7
20260501182536 18 245 0.0 0.0 0.00 0.00 0.00 74 1014.7
20260501182033 18 228 0.0 0.0 0.00 0.00 0.00 74 1014.7
20260501181530 18 235 0.0 0.0 0.00 0.00 0.00 72 1014.8
20260501181027 19 241 0.0 0.0 0.00 0.00 0.00 73 1014.7
20260501180525 19 284 0.0 0.0 0.00 0.00 0.00 73 1014.7
20260501180021 19 241 0.0 0.0 0.00 0.00 0.00 76 1014.7
20260501175518 19 264 0.0 0.0 0.00 0.00 0.00 73 1014.7
20260501175014 19 267 0.0 0.0 0.00 0.00 0.00 74 1014.6
20260501174512 20 291 0.0 0.0 0.00 0.00 0.00 71 1014.8
20260501174009 20 243 0.0 0.0 0.00 0.00 0.00 76 1014.9
20260501173507 20 244 0.0 0.0 0.00 0.00 0.00 75 1014.7
20260501173003 20 235 0.0 0.0 0.00 0.00 0.00 74 1014.6
20260501172458 20 73 0.0 0.0 0.00 0.00 0.00 75 1014.5
20260501171954 20 272 0.0 0.0 0.00 0.00 0.00 76 1014.4
20260501171450 20 275 0.0 0.0 0.00 0.00 0.00 75 1014.7
20260501170947 20 280 0.0 0.0 0.00 0.00 0.00 75 1014.8
20260501170444 20 248 0.0 0.0 0.00 0.00 0.00 77 1014.6
20260501165942 20 226 0.0 0.0 0.00 0.00 0.00 76 1014.7
20260501165439 20 246 0.0 0.0 0.00 0.00 0.00 77 1014.9
20260501164936 20 205 0.0 0.0 0.00 0.00 0.00 76 1014.6
20260501164434 20 71 0.0 0.0 0.00 0.00 0.00 76 1014.7
20260501163931 20 265 0.0 0.0 0.00 0.00 0.00 76 1014.8